Wind_Speed
34 33 33 32 31 31 31 32 33 32 34 35 37 39 39 41 41 43 44 44 44 45 46 47 48 49 49 50 50 49 49 50 49 48 48 49 49 49 48 48 47 46 44 43
34 33 32 31 31 31 31 32 32 32 33 34 35 37 38 39 40 41 42 43 43 44 45 46 47 48 49 49 50 49 50 50 50 50 49 48 49 49 49 49 48 47 46 44
34 33 32 31 31 31 31 30 31 32 32 33 34 36 36 38 39 39 40 42 42 43 44 46 46 47 48 48 49 50 50 50 50 51 50 50 50 50 51 51 49 49 47 46
33 32 32 32 31 31 29 29 30 31 32 33 32 34 34 35 37 38 38 40 41 42 43 44 45 46 47 47 48 50 50 51 51 51 51 50 50 51 51 51 50 49 49 49
33 32 32 31 30 30 29 29 29 30 30 31 31 32 31 32 35 37 37 38 40 41 42 43 44 45 46 46 47 49 50 50 51 52 52 51 50 50 51 52 52 51 50 50
34 33 32 31 30 29 28 28 29 29 29 29 28 29 30 30 32 34 35 36 38 40 41 42 44 45 45 46 47 47 49 50 50 50 52 52 52 51 51 52 53 52 51 50
34 33 31 30 29 28 27 27 28 27 27 28 26 27 27 28 30 32 34 35 35 37 39 42 43 44 46 46 47 47 47 49 50 49 51 52 52 53 53 52 53 53 52 51
34 31 30 29 29 28 26 26 26 27 26 26 25 25 24 26 28 30 32 34 34 35 37 40 42 43 44 45 46 47 48 48 49 49 49 51 52 53 55 54 53 53 52 52
33 30 29 27 27 27 25 24 24 25 26 26 26 25 24 25 27 29 31 33 34 35 37 39 41 42 43 44 45 47 48 47 47 48 48 49 51 51 53 54 54 53 52 52
33 30 28 27 26 25 24 24 24 24 26 27 26 25 24 25 28 29 30 33 35 36 36 38 40 42 42 43 44 46 47 48 47 48 48 49 50 51 53 52 54 54 54 53
32 30 28 26 25 24 23 23 24 24 25 27 28 25 25 26 28 30 30 32 34 36 37 39 40 41 42 43 45 47 47 48 49 49 50 50 50 51 53 53 52 53 53 54
32 30 28 25 25 24 23 23 24 24 24 26 27 27 26 28 28 29 30 31 32 34 36 38 40 42 42 44 45 46 48 49 49 50 50 51 51 52 53 53 54 53 52 53
32 30 28 26 26 25 24 23 24 24 25 25 26 26 26 28 29 29 30 31 33 33 34 37 40 42 42 43 45 47 48 50 50 50 51 51 51 53 53 53 54 54 54 53
31 30 28 28 27 26 24 23 23 24 25 25 25 25 25 26 28 29 29 31 33 34 35 37 39 40 41 42 43 46 48 50 51 51 52 53 53 54 55 54 55 55 55 55
31 30 29 28 28 27 25 24 24 24 24 25 24 24 23 26 27 28 29 30 32 33 35 36 38 40 40 42 42 44 46 49 51 52 53 54 55 56 56 55 55 56 56 56
31 31 30 29 28 27 25 25 26 25 25 25 25 24 24 24 26 27 28 29 30 32 34 35 37 38 39 41 43 44 45 48 50 52 53 54 57 57 56 55 55 56 57 57
31 32 32 30 29 28 26 26 25 25 25 25 25 24 25 25 26 27 27 28 28 31 32 34 35 36 37 39 41 42 44 45 47 49 51 54 56 58 58 58 57 57 58 58
31 31 31 30 30 28 27 26 25 26 26 26 26 26 25 25 26 26 27 28 28 29 30 32 34 35 35 36 38 40 41 43 45 46 47 51 54 56 57 57 58 57 58 57
31 31 31 31 31 29 27 27 27 27 26 27 27 27 27 27 26 26 27 28 28 29 30 32 33 35 35 36 38 39 40 42 43 45 46 47 50 53 55 56 57 58 58 58
31 31 31 31 31 29 28 28 29 28 27 27 27 28 27 27 27 26 27 27 28 28 30 31 32 34 34 35 36 38 40 42 43 44 46 48 49 51 53 55 57 58 58 58
30 30 30 30 30 29 29 29 29 29 28 28 28 28 28 28 28 27 27 27 28 29 29 31 32 33 33 34 35 36 38 40 41 42 44 46 48 49 52 53 55 56 58 58
30 31 30 30 30 29 29 29 28 28 28 29 28 28 28 29 29 28 28 28 28 28 29 29 30 31 32 33 33 34 35 37 38 39 41 43 45 47 49 51 53 54 56 57
30 30 30 30 29 29 29 29 29 29 29 29 28 28 28 28 28 28 27 27 28 28 28 29 29 29 30 31 32 33 33 34 36 37 38 41 42 44 46 48 50 51 53 55
30 30 30 29 28 29 29 29 29 29 29 29 28 28 28 28 27 27 27 28 28 27 28 28 28 28 28 29 30 30 31 32 34 35 36 38 41 43 44 46 48 50 52 53
31 31 30 29 29 29 29 29 30 29 29 28 28 28 27 27 27 27 27 27 27 27 27 26 26 27 27 27 28 29 30 31 32 33 34 35 37 40 42 44 45 48 50 51
30 31 30 30 30 30 29 29 30 29 28 28 27 27 27 27 27 27 27 27 26 26 26 26 26 26 26 27 28 28 29 31 32 33 33 34 35 36 39 41 43 44 46 48
Wind_Direction
314 311 306 301 297 292 288 283 279 274 271 270 263 260 256 253 252 249 247 246 245 243 241 240 239 239 239 239 238 235 234 234 234 232 232 232 233 233 233 233 232 232 233 234
314 311 308 304 300 294 290 286 280 275 273 274 268 261 257 254 251 248 246 245 245 244 240 239 239 238 237 237 237 236 234 234 234 233 233 233 232 232 231 232 232 232 232 233
315 314 309 306 302 296 291 287 281 277 275 275 272 263 258 255 251 247 245 245 245 243 240 239 238 238 236 236 236 236 235 234 233 233 233 233 232 231 231 231 231 232 232 232
317 316 312 307 304 301 292 287 284 280 277 275 274 268 260 256 252 247 245 244 243 241 240 238 237 236 235 235 236 236 236 235 233 233 233 232 233 232 230 231 231 231 231 232
318 316 314 310 307 304 297 289 285 282 280 277 274 270 263 258 252 248 245 244 242 241 239 238 237 236 235 234 236 236 235 235 234 233 233 232 232 231 230 230 230 231 232 232
317 315 314 312 309 306 301 294 289 285 280 277 274 270 265 260 254 250 246 244 241 241 240 239 237 236 236 235 235 235 234 235 235 233 232 232 232 231 229 229 229 229 230 231
316 314 313 313 309 306 301 297 293 288 281 277 276 271 266 261 257 253 248 244 241 241 240 239 237 236 236 236 237 235 234 234 235 235 233 232 232 232 230 229 229 229 230 231
319 316 314 312 310 307 304 300 296 289 283 280 276 271 268 263 259 254 251 246 244 242 241 239 238 237 237 238 238 236 235 235 235 235 233 232 231 232 230 229 229 229 230 230
322 318 315 314 313 309 305 302 299 290 286 282 276 270 269 262 260 256 252 249 247 247 243 240 239 237 237 238 238 237 236 236 237 236 234 232 231 231 229 229 229 229 229 231
323 319 317 314 313 311 306 304 301 294 290 285 280 273 269 265 261 260 255 251 250 248 245 243 241 240 240 239 238 237 237 236 236 236 235 234 232 232 231 229 229 229 229 230
322 319 317 314 313 311 307 303 301 296 291 287 281 277 270 268 266 262 259 254 252 250 247 245 243 242 242 241 240 240 239 238 237 236 234 234 232 232 231 229 229 230 231 232
321 320 316 312 311 309 307 305 302 298 292 288 284 281 274 272 269 265 262 257 254 253 250 249 246 244 243 243 243 242 240 239 239 238 236 234 233 232 230 229 230 230 231 232
320 319 317 312 309 308 306 304 301 298 294 292 289 285 278 274 271 269 265 261 257 256 251 249 248 246 245 245 244 244 242 240 239 238 236 234 233 232 231 231 232 231 231 231
318 317 315 314 311 308 305 303 300 296 296 294 291 288 280 277 275 273 270 266 261 257 254 251 249 247 247 247 246 244 244 242 240 239 238 235 234 232 233 233 234 232 232 232
317 316 314 312 310 307 303 301 298 296 297 296 295 291 287 282 280 277 274 270 265 261 258 255 253 251 250 249 248 247 246 244 242 241 239 237 235 233 234 233 233 233 232 232
315 315 314 311 308 305 302 300 299 298 296 296 295 293 290 289 285 282 277 274 269 265 261 257 255 254 252 251 250 249 248 246 244 243 241 238 235 234 234 234 234 233 233 234
314 313 314 313 309 305 301 303 300 297 296 295 294 295 293 289 287 285 281 277 273 267 263 260 258 257 256 254 252 251 249 246 245 244 243 240 238 236 235 235 235 234 234 235
313 312 312 313 311 307 306 301 300 299 297 294 293 294 293 291 288 286 283 280 276 270 265 262 258 257 256 255 253 252 250 248 246 245 245 243 240 238 237 237 237 236 236 237
311 311 311 312 311 309 305 302 300 300 299 295 293 293 292 292 290 286 284 282 281 275 270 265 262 260 258 257 255 254 253 250 249 247 246 244 242 239 237 237 237 236 236 237
309 310 309 310 310 310 307 304 301 299 299 298 294 292 292 292 291 288 285 284 280 277 273 269 265 264 261 259 256 255 253 253 252 250 248 246 243 241 239 238 237 236 236 236
308 308 308 308 308 308 307 305 302 300 300 298 297 294 293 293 293 291 288 285 282 278 275 272 268 266 265 263 260 257 255 254 253 250 248 245 243 241 240 238 237 236 236 236
307 306 307 307 308 309 307 304 302 301 300 298 296 294 293 293 294 293 291 288 284 281 277 274 271 269 267 265 262 259 257 255 252 250 247 244 244 243 241 238 238 238 237 237
304 305 305 306 307 306 306 303 301 300 299 298 296 295 294 293 293 294 292 290 287 283 278 276 272 270 268 266 263 261 258 255 252 251 248 245 245 245 242 240 239 239 238 238
300 301 303 305 306 305 304 303 301 299 298 298 296 295 295 295 294 294 293 292 289 287 283 278 275 271 269 266 264 262 259 256 253 250 249 249 247 245 243 240 239 238 238 238
297 298 301 304 305 304 304 302 301 299 299 298 297 296 295 295 294 295 295 293 291 290 287 282 278 273 271 268 266 264 260 257 255 253 252 250 248 246 243 241 240 239 238 238
296 297 299 301 302 303 303 300 300 299 299 298 297 297 296 295 294 294 295 293 292 291 289 285 280 275 272 271 268 264 260 257 255 254 253 250 247 245 242 239 238 238 238 238
Height
5662 5658 5652 5648 5645 5642 5640 5639 5638 5639 5637 5637 5638 5640 5643 5645 5648 5651 5654 5658 5661 5665 5669 5673 5678 5682 5687 5692 5696 5700 5706 5711 5717 5722 5727 5732 5738 5744 5749 5754 5759 5764 5768 5773
5656 5650 5645 5641 5638 5635 5633 5631 5629 5628 5627 5627 5627 5629 5631 5633 5636 5638 5642 5645 5649 5653 5657 5661 5665 5670 5674 5679 5684 5689 5694 5699 5705 5710 5715 5721 5726 5732 5738 5743 5748 5753 5758 5763
5648 5644 5638 5634 5631 5628 5625 5623 5621 5620 5619 5617 5617 5619 5620 5621 5623 5626 5630 5633 5637 5640 5645 5649 5654 5658 5662 5667 5672 5677 5682 5687 5693 5698 5703 5708 5714 5719 5725 5731 5737 5743 5748 5753
5641 5637 5632 5628 5624 5620 5618 5616 5613 5611 5609 5608 5608 5606 5611 5611 5612 5615 5619 5622 5625 5629 5633 5638 5642 5646 5651 5656 5660 5665 5670 5675 5680 5685 5691 5697 5702 5708 5714 5720 5726 5731 5737 5742
5635 5630 5626 5622 5618 5614 5611 5608 5606 5604 5601 5599 5599 5597 5601 5601 5603 5605 5608 5612 5615 5619 5623 5627 5631 5635 5640 5645 5649 5654 5658 5663 5668 5673 5679 5685 5690 5696 5702 5709 5715 5721 5726 5731
5629 5624 5619 5615 5611 5607 5604 5601 5599 5597 5594 5592 5592 5590 5592 5592 5594 5596 5599 5602 5605 5609 5612 5617 5620 5624 5628 5633 5638 5642 5647 5652 5657 5662 5666 5672 5678 5684 5690 5697 5703 5709 5715 5721
5623 5618 5613 5609 5605 5601 5598 5595 5592 5589 5587 5585 5585 5584 5585 5585 5586 5588 5591 5593 5596 5599 5602 5606 5609 5613 5618 5622 5626 5631 5636 5641 5646 5650 5655 5661 5666 5672 5679 5685 5692 5698 5704 5710
5616 5612 5607 5603 5599 5596 5592 5589 5587 5583 5581 5580 5580 5578 5580 5579 5579 5581 5583 5585 5588 5590 5593 5596 5599 5603 5607 5611 5615 5620 5625 5630 5635 5639 5644 5649 5655 5660 5666 5673 5680 5687 5693 5699
5610 5607 5602 5597 5593 5590 5587 5584 5582 5578 5575 5574 5574 5574 5575 5573 5573 5575 5576 5578 5580 5581 5584 5587 5590 5594 5597 5601 5605 5609 5614 5618 5623 5627 5632 5637 5643 5648 5654 5661 5668 5675 5682 5688
5605 5601 5597 5593 5589 5585 5582 5579 5576 5573 5569 5567 5568 5568 5569 5568 5567 5568 5569 5570 5571 5573 5575 5578 5581 5584 5587 5591 5594 5598 5603 5608 5612 5616 5621 5626 5632 5637 5643 5649 5657 5664 5670 5676
5600 5596 5592 5588 5584 5580 5578 5575 5571 5568 5565 5562 5561 5565 5563 5561 5560 5561 5561 5562 5563 5565 5566 5568 5571 5574 5577 5581 5584 5588 5592 5596 5600 5605 5610 5615 5620 5625 5631 5638 5645 5652 5658 5664
5594 5590 5587 5584 5580 5576 5573 5570 5566 5564 5561 5557 5555 5560 5556 5555 5553 5553 5554 5554 5555 5556 5558 5559 5562 5565 5568 5571 5574 5577 5581 5585 5589 5594 5599 5603 5608 5614 5620 5627 5633 5639 5646 5652
5589 5585 5581 5578 5577 5572 5568 5565 5561 5558 5555 5552 5550 5553 5550 5548 5547 5547 5547 5547 5547 5548 5549 5551 5553 5555 5558 5561 5563 5566 5569 5573 5578 5582 5587 5592 5596 5602 5608 5615 5621 5627 5634 5640
5584 5580 5577 5574 5569 5565 5562 5560 5556 5553 5550 5547 5545 5545 5544 5542 5541 5540 5540 5539 5539 5540 5541 5542 5544 5546 5548 5550 5552 5555 5558 5562 5566 5570 5574 5580 5585 5590 5597 5603 5609 5615 5621 5629
5578 5575 5571 5568 5563 5560 5557 5554 5551 5548 5545 5542 5541 5538 5537 5536 5535 5534 5533 5532 5532 5532 5533 5534 5535 5536 5538 5540 5542 5544 5547 5550 5554 5558 5563 5568 5573 5579 5585 5591 5597 5603 5610 5617
5573 5569 5566 5563 5558 5554 5552 5549 5546 5543 5540 5537 5535 5533 5532 5530 5528 5527 5526 5525 5524 5524 5525 5525 5526 5527 5528 5530 5532 5533 5536 5539 5542 5546 5551 5556 5561 5567 5573 5579 5585 5591 5598 5605
5568 5563 5559 5556 5552 5548 5547 5544 5540 5537 5535 5532 5529 5529 5526 5524 5522 5520 5518 5517 5516 5516 5516 5516 5517 5518 5519 5520 5522 5523 5525 5528 5531 5535 5538 5543 5548 5554 5560 5567 5573 5580 5586 5592
5562 5557 5553 5550 5547 5543 5544 5538 5534 5531 5529 5526 5523 5521 5519 5517 5515 5513 5511 5510 5509 5508 5508 5507 5508 5508 5509 5510 5511 5513 5514 5517 5520 5523 5527 5531 5536 5542 5548 5554 5560 5567 5574 5580
5556 5551 5547 5543 5539 5537 5536 5532 5528 5525 5523 5520 5517 5515 5513 5510 5508 5507 5504 5502 5501 5500 5499 5499 5499 5499 5500 5500 5501 5502 5504 5506 5509 5512 5515 5519 5523 5529 5535 5541 5547 5554 5560 5567
5550 5546 5542 5537 5533 5530 5530 5525 5520 5518 5517 5514 5510 5508 5505 5503 5502 5501 5497 5495 5493 5492 5491 5490 5490 5490 5490 5490 5491 5492 5493 5495 5498 5500 5504 5507 5511 5516 5522 5527 5534 5540 5547 5554
5543 5539 5536 5531 5527 5524 5522 5518 5514 5512 5510 5506 5503 5500 5498 5496 5494 5492 5489 5487 5485 5484 5482 5481 5481 5480 5481 5481 5481 5482 5483 5485 5486 5489 5492 5495 5499 5504 5509 5515 5521 5527 5533 5540
5536 5532 5529 5525 5521 5521 5515 5511 5508 5505 5501 5498 5495 5493 5491 5488 5486 5483 5481 5479 5477 5475 5474 5473 5472 5471 5471 5471 5471 5472 5473 5474 5476 5478 5481 5484 5488 5492 5497 5502 5508 5513 5519 5526
5530 5527 5522 5520 5518 5512 5508 5504 5500 5497 5494 5491 5488 5486 5483 5481 5478 5476 5474 5472 5469 5467 5466 5464 5463 5463 5463 5462 5462 5462 5463 5464 5466 5468 5470 5473 5477 5480 5484 5489 5495 5500 5506 5512
5523 5519 5515 5512 5510 5505 5501 5497 5493 5490 5486 5484 5481 5478 5476 5473 5471 5469 5466 5464 5462 5460 5458 5456 5455 5454 5453 5453 5452 5452 5453 5454 5456 5458 5461 5463 5465 5469 5472 5477 5482 5488 5494 5499
5515 5511 5508 5505 5502 5498 5494 5490 5486 5482 5479 5476 5474 5471 5468 5466 5464 5461 5459 5456 5454 5452 5450 5448 5447 5446 5445 5444 5444 5444 5445 5446 5447 5449 5451 5453 5455 5457 5461 5466 5471 5476 5482 5488
5508 5505 5501 5498 5495 5491 5487 5483 5479 5476 5472 5469 5467 5464 5461 5458 5456 5454 5451 5449 5446 5444 5442 5441 5440 5438 5438 5437 5436 5436 5436 5437 5438 5440 5441 5443 5445 5447 5451 5455 5460 5464 5470 5476